COSMOS 1275 DEB, 12675

Orbit data source: Space-Track

COSMOS 1275 DEB, 12675 is space debris in LEO originally from a launch on Thu, 04 Jun 1981 UTC launched from the Plesetsk Missile And Space Complex (PKMTR). Debris objects in space refer to the collection of defunct objects orbiting the Earth. Examples of debris include non-operational satellites, rocket bodies, and fragments generated from explosions, collisions, or faulty payload assembly.

Loading next visibility...
COSMOS 1275 DEB details
Identifier
12675, 1981-053AF
Orbit
LEO
Last TLE update5 hours ago
Origin
Flag of CISVMF (CIS)
ManufacturerUnknown
MissionSpacecraft
Bus & MotorUnknown
MassUnknown
Launch date (UTC)
1981-06-04 (44 years ago)
Launch vehicleUnknown
Launch site
Plesetsk Missile And Space Complex (PKMTR)
Object type
Payload
Rocket body
Debris
Shape & HBRUnknown
Radar Cross SectionMedium (>0.1 m² and <1 m²)

Expand to show TLE details & history

TLE from 5 hours ago
0 COSMOS 1275 DEB
1 12675U 81053AF  24361.27587757  .00001778  00000-0  16692-2 0  9991
2 12675  82.9360 304.9201 0066513   0.6969 161.3406 13.80055647174328
Epoch: 2024-12-26T06:37Z
Definitive object data (Epoch: 2024-12-26T06:37:15.822Z)
Latitude17.57089°
Longitude-71.89066°
Altitude1,012.323 km
Speed7.324 km/s
True Right ascension08h 10m 43s
True Declination17° 28' 32"
Sunlit
Object was in full shadow at TLE epoch
Visualization TLE readout
Latitude-23.12523°
Longitude-66.80445°
Altitude1,017.241 km
Speed7.32 km/s
Apparent Right ascension05h 26m 53s
Apparent Declination-56° 12' 06"
Sunlit
Object is in full shadow
Visualization observer readout
Local Sidereal Time11:23:54
Azimuth220.905° SW
Elevation-31.848°
Doppler factor1
Orbital elements
Apogee altitude1,009.645 km
Perigee altitude912.018 km
Semi-major axis7,338.968 km
Eccentricity0.0066513
Inclination82.936°
RAAN304.9201°
Arg. of periapsis0.6969°
True anomaly161.58255°
Mean anomaly161.3406°
Eccentric anomaly161.46176°
Mean motion3.45216 °/min
BSTAR0.0016692
Orbital period104.28 mins
Loading maneuver chart data...
Loading historical data...
Loading historical data...
Loading historical data...
Loading historical data...
Loading historical data...
Loading historical data...
Loading historical data...

COSMOS 1275 DEB Visibility forecast

Observer location: undefined°, undefined

Span
Click to sort rows by Start time (UTC) header in descending order
Start Az.
Max El. time (UTC)
Max El. Az.
Max El.
End time (UTC)
End Az.
7 mins2024-12-26 19:53:27.707Z121.984° SE2024-12-26 19:57:27.707Z77.88° E17.401°2024-12-26 20:00:27.707Z45.587° ENE
10 mins2024-12-26 21:37:27.707Z205.779° SW2024-12-26 21:41:27.707Z273.149° WNW40.415°2024-12-26 21:47:27.707Z359.204° N
6 mins2024-12-27 06:48:27.707Z41.647° NE2024-12-27 06:50:27.707Z62.278° ENE15.298°2024-12-27 06:54:27.707Z102.299° ESE
11 mins2024-12-27 08:31:27.707Z349.271° N2024-12-27 08:36:27.707Z294.54° NW44.138°2024-12-27 08:42:27.707Z181° SSW
|